Hourly Weather Roundup
Issued by NWS Central Illinois

Home | Current Version | Previous Version | Text Only | Print | Product List | Glossary On
Versions: 1 2 3 4 5 6 7 8 9 10 11 12 13 14 15 16 17 18 19 20 21 22 23 24 25 26 27 28 29 30 31 32 33 34 35 36 37 38 39 40 41 42 43 44 45 46 47 48 49 50
000
NZUS43 KILX 212210
HWRILX

AREA WEATHER ROUNDUP
NATIONAL WEATHER SERVICE, LINCOLN IL
400 PM CST TUE FEB 21 2017


CITY           SKY/WX    TMP DP  RH WIND       PRES   REMARKS
BLOOMINGTON    CLOUDY    64  55  72 S5        29.92S
CHAMPAIGN      CLOUDY    62  54  74 SE3       29.91F
DECATUR        CLOUDY    62  55  77 E3        29.90F
EFFINGHAM      CLOUDY    61  55  80 SE5       29.93R
FLORA          PTSUNNY   62  56  80 NE5       29.93S
GALESBURG      MOSUNNY   64  55  72 S6        29.90S
JACKSONVILLE   CLOUDY    63  58  83 S3        29.89F
LACON          PTSUNNY   66  56  71 S6        29.89F
LAWRENCEVILLE  CLOUDY    59  56  89 NE6       29.93S
LITCHFIELD     CLOUDY    61  57  87 NE3       29.90F
$$


CITY           SKY/WX    TMP DP  RH WIND       PRES   REMARKS
LINCOLN        CLOUDY    65  58  80 SE3       29.90F
MACOMB         SUNNY     65  57  73 CALM      29.92F
MATTOON        MOSUNNY   62  54  74 CALM      29.91S
MT CARMEL AP   LGT RAIN  58  55  88 NE7       29.91F
OLNEY-NOBLE AP CLOUDY    59  59 100 E5        29.93S
PARIS          CLOUDY    61  53  74 CALM      29.92F
PEORIA         CLOUDY    66  56  70 SW5       29.89F
PONTIAC        MOSUNNY   66  58  73 S6        29.91F
RANTOUL        CLOUDY    65  57  73 SE5       29.91S
SPRINGFIELD    CLOUDY    64  57  78 CALM      29.90F
TAYLORVILLE    CLOUDY    62  57  83 CALM      29.91S
$$

...REGIONAL REPORTS...


CITY           SKY/WX    TMP DP  RH WIND       PRES   REMARKS
CHICAGO O`HARE PTSUNNY   65  51  60 W6        29.89F
KANKAKEE       CLOUDY    64  54  68 CALM      29.92S
MOLINE         SUNNY     69  44  40 CALM      29.88F
MOUNT STERLING PTSUNNY   65  57  75 CALM      29.89S
MOUNT VERNON   CLOUDY    61  54  77 N9        29.91R
PITTSFIELD     MOSUNNY   66  57  72 E5        29.90F
QUINCY         MOSUNNY   66  57  72 S3        29.88F
ROCKFORD       MOSUNNY   66  41  40 CALM      29.91F
$$


CITY           SKY/WX    TMP DP  RH WIND       PRES   REMARKS
BURLINGTON     SUNNY     66  54  65 S6        29.89S
CEDAR RAPIDS   MOSUNNY   61  44  53 SW6       29.89F
DES MOINES     MOSUNNY   68  32  26 SW13      29.86F
KIRKSVILLE     SUNNY     71  46  40 CALM      29.89S
OTTUMWA        SUNNY     69  33  26 W5        29.89F
ST LOUIS       CLOUDY    67  55  65 SE3       29.90S
$$


CITY           SKY/WX    TMP DP  RH WIND       PRES   REMARKS
TERRE HAUTE    CLOUDY    63  50  62 S12       29.93R
EVANSVILLE     CLOUDY    64  54  69 SE9       29.92S
INDIANAPOLIS   CLOUDY    63  48  58 S7        29.93S
LAFAYETTE      CLOUDY    61  51  70 SE5       29.92R
MADISON        MOSUNNY   61  33  35 S7        29.87F
MILWAUKEE      MOSUNNY   63  39  41 SE9       29.89S
$$






USA.gov is the U.S. government's official web portal to all federal, state and local government web resources and services.